Year,Month,Day,Hour,Minute,Value (Times are PST for temperature in C)
2018,07,30,00,00,22.80
2018,07,30,00,01,22.70
2018,07,30,00,02,22.70
2018,07,30,00,03,22.70
2018,07,30,00,04,22.60
2018,07,30,00,05,22.50
2018,07,30,00,06,22.50
2018,07,30,00,07,22.40
2018,07,30,00,08,22.40
2018,07,30,00,09,22.30
2018,07,30,00,10,22.20
2018,07,30,00,11,22.20
2018,07,30,00,12,22.10
2018,07,30,00,13,22.00
2018,07,30,00,14,22.00
2018,07,30,00,15,21.90
2018,07,30,00,16,21.90
2018,07,30,00,17,21.80
2018,07,30,00,18,21.80
2018,07,30,00,19,21.70
2018,07,30,00,20,21.70
2018,07,30,00,21,21.70
2018,07,30,00,22,21.70
2018,07,30,00,23,21.70
2018,07,30,00,24,21.70
2018,07,30,00,25,21.70
2018,07,30,00,26,21.80
2018,07,30,00,27,21.90
2018,07,30,00,28,22.00
2018,07,30,00,29,22.10
2018,07,30,00,30,22.20
2018,07,30,00,31,22.30
2018,07,30,00,32,22.30
2018,07,30,00,33,22.30
2018,07,30,00,34,22.30
2018,07,30,00,35,22.30
2018,07,30,00,36,22.40
2018,07,30,00,37,22.40
2018,07,30,00,38,22.50
2018,07,30,00,39,22.50
2018,07,30,00,40,22.60
2018,07,30,00,41,22.60
2018,07,30,00,42,22.60
2018,07,30,00,43,22.60
2018,07,30,00,44,22.60
2018,07,30,00,45,22.60
2018,07,30,00,46,22.50
2018,07,30,00,47,22.50
2018,07,30,00,48,22.40
2018,07,30,00,49,22.40
2018,07,30,00,50,22.40
2018,07,30,00,51,22.40
2018,07,30,00,52,22.40
2018,07,30,00,53,22.30
2018,07,30,00,54,22.30
2018,07,30,00,55,22.30
2018,07,30,00,56,22.30
2018,07,30,00,57,22.20
2018,07,30,00,58,22.20
2018,07,30,00,59,22.10
2018,07,30,01,00,22.10
2018,07,30,01,01,22.00
2018,07,30,01,02,21.90
2018,07,30,01,03,21.90
2018,07,30,01,04,21.90
2018,07,30,01,05,21.90
2018,07,30,01,06,21.90
2018,07,30,01,07,21.90
2018,07,30,01,08,21.90
2018,07,30,01,09,21.90
2018,07,30,01,10,21.90
2018,07,30,01,11,22.00
2018,07,30,01,12,22.00
2018,07,30,01,13,22.10
2018,07,30,01,14,22.10
2018,07,30,01,15,22.20
2018,07,30,01,16,22.20
2018,07,30,01,17,22.20
2018,07,30,01,18,22.20
2018,07,30,01,19,22.20
2018,07,30,01,20,22.30
2018,07,30,01,21,22.30
2018,07,30,01,22,22.30
2018,07,30,01,23,22.20
2018,07,30,01,24,22.20
2018,07,30,01,25,22.20
2018,07,30,01,26,22.10
2018,07,30,01,27,22.10
2018,07,30,01,28,22.00
2018,07,30,01,29,21.90
2018,07,30,01,30,21.90
2018,07,30,01,31,21.80
2018,07,30,01,32,21.80
2018,07,30,01,33,21.80
2018,07,30,01,34,21.80
2018,07,30,01,35,21.80
2018,07,30,01,36,21.80
2018,07,30,01,37,21.80
2018,07,30,01,38,21.80
2018,07,30,01,39,21.80
2018,07,30,01,40,21.80
2018,07,30,01,41,21.90
2018,07,30,01,42,21.90
2018,07,30,01,43,21.90
2018,07,30,01,44,22.00
2018,07,30,01,45,22.00
2018,07,30,01,46,22.00
2018,07,30,01,47,22.00
2018,07,30,01,48,22.00
2018,07,30,01,49,22.00
2018,07,30,01,50,22.10
2018,07,30,01,51,22.10
2018,07,30,01,52,22.10
2018,07,30,01,53,22.20
2018,07,30,01,54,22.30
2018,07,30,01,55,22.30
2018,07,30,01,56,22.30
2018,07,30,01,57,22.30
2018,07,30,01,58,22.30
2018,07,30,01,59,22.30
2018,07,30,02,00,22.30
2018,07,30,02,01,22.30
2018,07,30,02,02,22.30
2018,07,30,02,03,22.40
2018,07,30,02,04,22.50
2018,07,30,02,05,22.50
2018,07,30,02,06,22.60
2018,07,30,02,07,22.70
2018,07,30,02,08,22.80
2018,07,30,02,09,22.80
2018,07,30,02,10,22.80
2018,07,30,02,11,22.80
2018,07,30,02,12,22.90
2018,07,30,02,13,23.00
2018,07,30,02,14,23.10
2018,07,30,02,15,23.10
2018,07,30,02,16,23.20
2018,07,30,02,17,23.20
2018,07,30,02,18,23.30
2018,07,30,02,19,23.30
2018,07,30,02,20,23.30
2018,07,30,02,21,23.30
2018,07,30,02,22,23.20
2018,07,30,02,23,23.10
2018,07,30,02,24,23.00
2018,07,30,02,25,22.90
2018,07,30,02,26,22.80
2018,07,30,02,27,22.80
2018,07,30,02,28,22.80
2018,07,30,02,29,22.80
2018,07,30,02,30,22.80
2018,07,30,02,31,22.80
2018,07,30,02,32,22.80
2018,07,30,02,33,22.80
2018,07,30,02,34,22.80
2018,07,30,02,35,22.80
2018,07,30,02,36,22.80
2018,07,30,02,37,22.80
2018,07,30,02,38,22.80
2018,07,30,02,39,22.70
2018,07,30,02,40,22.70
2018,07,30,02,41,22.60
2018,07,30,02,42,22.60
2018,07,30,02,43,22.50
2018,07,30,02,44,22.50
2018,07,30,02,45,22.40
2018,07,30,02,46,22.50
2018,07,30,02,47,22.50
2018,07,30,02,48,22.60
2018,07,30,02,49,22.70
2018,07,30,02,50,22.80
2018,07,30,02,51,22.80
2018,07,30,02,52,22.80
2018,07,30,02,53,22.80
2018,07,30,02,54,22.80
2018,07,30,02,55,22.80
2018,07,30,02,56,22.80
2018,07,30,02,57,22.70
2018,07,30,02,58,22.70
2018,07,30,02,59,22.60
2018,07,30,03,00,22.50
2018,07,30,03,01,22.50
2018,07,30,03,02,22.40
2018,07,30,03,03,22.30
2018,07,30,03,04,22.30
2018,07,30,03,05,22.30
2018,07,30,03,06,22.20
2018,07,30,03,07,22.20
2018,07,30,03,08,22.20
2018,07,30,03,09,22.20
2018,07,30,03,10,22.20
2018,07,30,03,11,22.20
2018,07,30,03,12,22.20
2018,07,30,03,13,22.20
2018,07,30,03,14,22.20
2018,07,30,03,15,22.20
2018,07,30,03,16,22.20
2018,07,30,03,17,22.20
2018,07,30,03,18,22.10
2018,07,30,03,19,22.10
2018,07,30,03,20,22.10
2018,07,30,03,21,22.10
2018,07,30,03,22,22.10
2018,07,30,03,23,22.00
2018,07,30,03,24,22.00
2018,07,30,03,25,21.90
2018,07,30,03,26,21.80
2018,07,30,03,27,21.70
2018,07,30,03,28,21.60
2018,07,30,03,29,21.40
2018,07,30,03,30,21.20
2018,07,30,03,31,21.00
2018,07,30,03,32,20.80
2018,07,30,03,33,20.60
2018,07,30,03,34,20.50
2018,07,30,03,35,20.40
2018,07,30,03,36,20.30
2018,07,30,03,37,20.20
2018,07,30,03,38,20.20
2018,07,30,03,39,20.10
2018,07,30,03,40,20.10
2018,07,30,03,41,20.10
2018,07,30,03,42,20.20
2018,07,30,03,43,20.20
2018,07,30,03,44,20.30
2018,07,30,03,45,20.30
2018,07,30,03,46,20.30
2018,07,30,03,47,20.30
2018,07,30,03,48,20.40
2018,07,30,03,49,20.40
2018,07,30,03,50,20.40
2018,07,30,03,51,20.50
2018,07,30,03,52,20.50
2018,07,30,03,53,20.60
2018,07,30,03,54,20.60
2018,07,30,03,55,20.70
2018,07,30,03,56,20.70
2018,07,30,03,57,20.70
2018,07,30,03,58,20.60
2018,07,30,03,59,20.50
2018,07,30,04,00,20.40
2018,07,30,04,01,20.30
2018,07,30,04,02,20.20
2018,07,30,04,03,20.10
2018,07,30,04,04,20.00
2018,07,30,04,05,20.00
2018,07,30,04,06,19.90
2018,07,30,04,07,19.90
2018,07,30,04,08,19.90
2018,07,30,04,09,19.90
2018,07,30,04,10,19.90
2018,07,30,04,11,20.00
2018,07,30,04,12,20.10
2018,07,30,04,13,20.10
2018,07,30,04,14,20.20
2018,07,30,04,15,20.30
2018,07,30,04,16,20.40
2018,07,30,04,17,20.50
2018,07,30,04,18,20.60
2018,07,30,04,19,20.70
2018,07,30,04,20,20.80
2018,07,30,04,21,20.90
2018,07,30,04,22,20.90
2018,07,30,04,23,21.00
2018,07,30,04,24,21.10
2018,07,30,04,25,21.10
2018,07,30,04,26,21.20
2018,07,30,04,27,21.20
2018,07,30,04,28,21.20
2018,07,30,04,29,21.20
2018,07,30,04,30,21.10
2018,07,30,04,31,21.10
2018,07,30,04,32,21.10
2018,07,30,04,33,21.10
2018,07,30,04,34,21.10
2018,07,30,04,35,21.00
2018,07,30,04,36,21.00
2018,07,30,04,37,20.90
2018,07,30,04,38,20.90
2018,07,30,04,39,20.80
2018,07,30,04,40,20.70
2018,07,30,04,41,20.60
2018,07,30,04,42,20.50
2018,07,30,04,43,20.40
2018,07,30,04,44,20.30
2018,07,30,04,45,20.20
2018,07,30,04,46,20.20
2018,07,30,04,47,20.10
2018,07,30,04,48,20.00
2018,07,30,04,49,19.90
2018,07,30,04,50,19.80
2018,07,30,04,51,19.70
2018,07,30,04,52,19.60
2018,07,30,04,53,19.50
2018,07,30,04,54,19.40
2018,07,30,04,55,19.30
2018,07,30,04,56,19.30
2018,07,30,04,57,19.20
2018,07,30,04,58,19.10
2018,07,30,04,59,19.00
2018,07,30,05,00,19.00
2018,07,30,05,01,18.90
2018,07,30,05,02,18.90
2018,07,30,05,03,18.90
2018,07,30,05,04,18.90
2018,07,30,05,05,18.90
2018,07,30,05,06,18.90
2018,07,30,05,07,18.80
2018,07,30,05,08,18.80
2018,07,30,05,09,18.80
2018,07,30,05,10,18.80
2018,07,30,05,11,18.80
2018,07,30,05,12,18.80
2018,07,30,05,13,18.80
2018,07,30,05,14,18.80
2018,07,30,05,15,18.80
2018,07,30,05,16,18.80
2018,07,30,05,17,18.80
2018,07,30,05,18,18.80
2018,07,30,05,19,18.80
2018,07,30,05,20,18.80
2018,07,30,05,21,18.70
2018,07,30,05,22,18.70
2018,07,30,05,23,18.70
2018,07,30,05,24,18.70
2018,07,30,05,25,18.80
2018,07,30,05,26,18.80
2018,07,30,05,27,18.80
2018,07,30,05,28,18.80
2018,07,30,05,29,18.80
2018,07,30,05,30,18.80
2018,07,30,05,31,18.80
2018,07,30,05,32,18.70
2018,07,30,05,33,18.70
2018,07,30,05,34,18.70
2018,07,30,05,35,18.70
2018,07,30,05,36,18.70
2018,07,30,05,37,18.60
2018,07,30,05,38,18.60
2018,07,30,05,39,18.60
2018,07,30,05,40,18.60
2018,07,30,05,41,18.60
2018,07,30,05,42,18.60
2018,07,30,05,43,18.60
2018,07,30,05,44,18.60
2018,07,30,05,45,18.60
2018,07,30,05,46,18.60
2018,07,30,05,47,18.60
2018,07,30,05,48,18.60
2018,07,30,05,49,18.60
2018,07,30,05,50,18.60
2018,07,30,05,51,18.60
2018,07,30,05,52,18.60
2018,07,30,05,53,18.60
2018,07,30,05,54,18.60
2018,07,30,05,55,18.60
2018,07,30,05,56,18.60
2018,07,30,05,57,18.60
2018,07,30,05,58,18.60
2018,07,30,05,59,18.60
2018,07,30,06,00,18.50
2018,07,30,06,01,18.50
2018,07,30,06,02,18.50
2018,07,30,06,03,18.40
2018,07,30,06,04,18.40
2018,07,30,06,05,18.30
2018,07,30,06,06,18.30
2018,07,30,06,07,18.20
2018,07,30,06,08,18.10
2018,07,30,06,09,18.10
2018,07,30,06,10,18.00
2018,07,30,06,11,17.90
2018,07,30,06,12,17.80
2018,07,30,06,13,17.80
2018,07,30,06,14,17.80
2018,07,30,06,15,17.80
2018,07,30,06,16,17.70
2018,07,30,06,17,17.70
2018,07,30,06,18,17.70
2018,07,30,06,19,17.70
2018,07,30,06,20,17.70
2018,07,30,06,21,17.70
2018,07,30,06,22,17.60
2018,07,30,06,23,17.60
2018,07,30,06,24,17.60
2018,07,30,06,25,17.60
2018,07,30,06,26,17.60
2018,07,30,06,27,17.60
2018,07,30,06,28,17.60
2018,07,30,06,29,17.60
2018,07,30,06,30,17.60
2018,07,30,06,31,17.60
2018,07,30,06,32,17.60
2018,07,30,06,33,17.70
2018,07,30,06,34,17.70
2018,07,30,06,35,17.70
2018,07,30,06,36,17.70
2018,07,30,06,37,17.70
2018,07,30,06,38,17.70
2018,07,30,06,39,17.70
2018,07,30,06,40,17.70
2018,07,30,06,41,17.70
2018,07,30,06,42,17.70
2018,07,30,06,43,17.70
2018,07,30,06,44,17.70
2018,07,30,06,45,17.70
2018,07,30,06,46,17.80
2018,07,30,06,47,17.80
2018,07,30,06,48,17.80
2018,07,30,06,49,17.90
2018,07,30,06,50,17.90
2018,07,30,06,51,17.90
2018,07,30,06,52,18.00
2018,07,30,06,53,18.00
2018,07,30,06,54,18.00
2018,07,30,06,55,18.00
2018,07,30,06,56,18.10
2018,07,30,06,57,18.10
2018,07,30,06,58,18.10
2018,07,30,06,59,18.10
2018,07,30,07,00,18.20
2018,07,30,07,01,18.20
2018,07,30,07,02,18.20
2018,07,30,07,03,18.20
2018,07,30,07,04,18.20
2018,07,30,07,05,18.30
2018,07,30,07,06,18.30
2018,07,30,07,07,18.30
2018,07,30,07,08,18.30
2018,07,30,07,09,18.30
2018,07,30,07,10,18.30
2018,07,30,07,11,18.30
2018,07,30,07,12,18.30
2018,07,30,07,13,18.30
2018,07,30,07,14,18.30
2018,07,30,07,15,18.30
2018,07,30,07,16,18.30
2018,07,30,07,17,18.30
2018,07,30,07,18,18.40
2018,07,30,07,19,18.40
2018,07,30,07,20,18.40
2018,07,30,07,21,18.40
2018,07,30,07,22,18.40
2018,07,30,07,23,18.40
2018,07,30,07,24,18.40
2018,07,30,07,25,18.40
2018,07,30,07,26,18.40
2018,07,30,07,27,18.40
2018,07,30,07,28,18.50
2018,07,30,07,29,18.50
2018,07,30,07,30,18.60
2018,07,30,07,31,18.60
2018,07,30,07,32,18.70
2018,07,30,07,33,18.70
2018,07,30,07,34,18.70
2018,07,30,07,35,18.80
2018,07,30,07,36,18.80
2018,07,30,07,37,18.90
2018,07,30,07,38,18.90
2018,07,30,07,39,19.00
2018,07,30,07,40,19.00
2018,07,30,07,41,19.10
2018,07,30,07,42,19.10
2018,07,30,07,43,19.10
2018,07,30,07,44,19.10
2018,07,30,07,45,19.20
2018,07,30,07,46,19.20
2018,07,30,07,47,19.20
2018,07,30,07,48,19.20
2018,07,30,07,49,19.20
2018,07,30,07,50,19.30
2018,07,30,07,51,19.30
2018,07,30,07,52,19.30
2018,07,30,07,53,19.30
2018,07,30,07,54,19.40
2018,07,30,07,55,19.40
2018,07,30,07,56,19.40
2018,07,30,07,57,19.50
2018,07,30,07,58,19.50
2018,07,30,07,59,19.60
2018,07,30,08,00,19.70
2018,07,30,08,01,19.70
2018,07,30,08,02,19.80
2018,07,30,08,03,19.80
2018,07,30,08,04,19.80
2018,07,30,08,05,19.90
2018,07,30,08,06,19.90
2018,07,30,08,07,19.90
2018,07,30,08,08,19.90
2018,07,30,08,09,19.90
2018,07,30,08,10,19.90
2018,07,30,08,11,20.00
2018,07,30,08,12,20.00
2018,07,30,08,13,20.10
2018,07,30,08,14,20.10
2018,07,30,08,15,20.20
2018,07,30,08,16,20.20
2018,07,30,08,17,20.30
2018,07,30,08,18,20.30
2018,07,30,08,19,20.40
2018,07,30,08,20,20.50
2018,07,30,08,21,20.50
2018,07,30,08,22,20.60
2018,07,30,08,23,20.70
2018,07,30,08,24,20.70
2018,07,30,08,25,20.80
2018,07,30,08,26,20.90
2018,07,30,08,27,20.90
2018,07,30,08,28,20.90
2018,07,30,08,29,21.00
2018,07,30,08,30,21.10
2018,07,30,08,31,21.20
2018,07,30,08,32,21.30
2018,07,30,08,33,21.30
2018,07,30,08,34,21.40
2018,07,30,08,35,21.40
2018,07,30,08,36,21.40
2018,07,30,08,37,21.40
2018,07,30,08,38,21.50
2018,07,30,08,39,21.50
2018,07,30,08,40,21.60
2018,07,30,08,41,21.60
2018,07,30,08,42,21.70
2018,07,30,08,43,21.70
2018,07,30,08,44,21.80
2018,07,30,08,45,21.80
2018,07,30,08,46,21.80
2018,07,30,08,47,21.90
2018,07,30,08,48,22.00
2018,07,30,08,49,22.10
2018,07,30,08,50,22.10
2018,07,30,08,51,22.20
2018,07,30,08,52,22.20
2018,07,30,08,53,22.20
2018,07,30,08,54,22.20
2018,07,30,08,55,22.20
2018,07,30,08,56,22.20
2018,07,30,08,57,22.20
2018,07,30,08,58,22.20
2018,07,30,08,59,22.20
2018,07,30,09,00,22.20
2018,07,30,09,01,22.30
2018,07,30,09,02,22.30
2018,07,30,09,03,22.30
2018,07,30,09,04,22.30
2018,07,30,09,05,22.30
2018,07,30,09,06,22.30
2018,07,30,09,07,22.20
2018,07,30,09,08,22.30
2018,07,30,09,09,22.30
2018,07,30,09,10,22.40
2018,07,30,09,11,22.50
2018,07,30,09,12,22.60
2018,07,30,09,13,22.70
2018,07,30,09,14,22.80
2018,07,30,09,15,22.80
2018,07,30,09,16,22.90
2018,07,30,09,17,22.90
2018,07,30,09,18,23.00
2018,07,30,09,19,23.10
2018,07,30,09,20,23.10
2018,07,30,09,21,23.10
2018,07,30,09,22,23.00
2018,07,30,09,23,23.00
2018,07,30,09,24,22.90
2018,07,30,09,25,22.90
2018,07,30,09,26,22.90
2018,07,30,09,27,23.00
2018,07,30,09,28,23.00
2018,07,30,09,29,23.10
2018,07,30,09,30,23.20
2018,07,30,09,31,23.30
2018,07,30,09,32,23.20
2018,07,30,09,33,23.20
2018,07,30,09,34,23.10
2018,07,30,09,35,23.10
2018,07,30,09,36,23.10
2018,07,30,09,37,23.20
2018,07,30,09,38,23.20
2018,07,30,09,39,23.20
2018,07,30,09,40,23.20
2018,07,30,09,41,23.20
2018,07,30,09,42,23.20
2018,07,30,09,43,23.20
2018,07,30,09,44,23.20
2018,07,30,09,45,23.20
2018,07,30,09,46,23.20
2018,07,30,09,47,23.20
2018,07,30,09,48,23.20
2018,07,30,09,49,23.20
2018,07,30,09,50,23.20
2018,07,30,09,51,23.20
2018,07,30,09,52,23.30
2018,07,30,09,53,23.40
2018,07,30,09,54,23.50
2018,07,30,09,55,23.60
2018,07,30,09,56,23.60
2018,07,30,09,57,23.70
2018,07,30,09,58,23.80
2018,07,30,09,59,23.80
2018,07,30,10,00,23.80
2018,07,30,10,01,23.90
2018,07,30,10,02,23.90
2018,07,30,10,03,24.00
2018,07,30,10,04,24.00
2018,07,30,10,05,24.10
2018,07,30,10,06,24.10
2018,07,30,10,07,24.10
2018,07,30,10,08,24.10
2018,07,30,10,09,24.10
2018,07,30,10,10,24.20
2018,07,30,10,11,24.30
2018,07,30,10,12,24.40
2018,07,30,10,13,24.40
2018,07,30,10,14,24.50
2018,07,30,10,15,24.50
2018,07,30,10,16,24.50
2018,07,30,10,17,24.60
2018,07,30,10,18,24.60
2018,07,30,10,19,24.70
2018,07,30,10,20,24.80
2018,07,30,10,21,24.90
2018,07,30,10,22,25.00
2018,07,30,10,23,25.00
2018,07,30,10,24,24.90
2018,07,30,10,25,24.90
2018,07,30,10,26,24.90
2018,07,30,10,27,24.90
2018,07,30,10,28,25.00
2018,07,30,10,29,25.10
2018,07,30,10,30,25.00
2018,07,30,10,31,25.00
2018,07,30,10,32,25.00
2018,07,30,10,33,25.00
2018,07,30,10,34,25.10
2018,07,30,10,35,25.20
2018,07,30,10,36,25.30
2018,07,30,10,37,25.30
2018,07,30,10,38,25.40
2018,07,30,10,39,25.50
2018,07,30,10,40,25.50
2018,07,30,10,41,25.60
2018,07,30,10,42,25.70
2018,07,30,10,43,25.80
2018,07,30,10,44,25.70
2018,07,30,10,45,25.70
2018,07,30,10,46,25.80
2018,07,30,10,47,25.80
2018,07,30,10,48,25.80
2018,07,30,10,49,25.80
2018,07,30,10,50,25.80
2018,07,30,10,51,25.70
2018,07,30,10,52,25.70
2018,07,30,10,53,25.80
2018,07,30,10,54,26.00
2018,07,30,10,55,26.10
2018,07,30,10,56,26.20
2018,07,30,10,57,26.20
2018,07,30,10,58,26.10
2018,07,30,10,59,26.00
2018,07,30,11,00,26.00
2018,07,30,11,01,26.00
2018,07,30,11,02,26.00
2018,07,30,11,03,26.00
2018,07,30,11,04,26.00
2018,07,30,11,05,26.00
2018,07,30,11,06,26.00
2018,07,30,11,07,26.10
2018,07,30,11,08,26.20
2018,07,30,11,09,26.30
2018,07,30,11,10,26.40
2018,07,30,11,11,26.40
2018,07,30,11,12,26.40
2018,07,30,11,13,26.40
2018,07,30,11,14,26.40
2018,07,30,11,15,26.40
2018,07,30,11,16,26.40
2018,07,30,11,17,26.50
2018,07,30,11,18,26.50
2018,07,30,11,19,26.60
2018,07,30,11,20,26.60
2018,07,30,11,21,26.70
2018,07,30,11,22,26.80
2018,07,30,11,23,26.90
2018,07,30,11,24,27.10
2018,07,30,11,25,27.20
2018,07,30,11,26,27.30
2018,07,30,11,27,27.40
2018,07,30,11,28,27.40
2018,07,30,11,29,27.40
2018,07,30,11,30,27.50
2018,07,30,11,31,27.60
2018,07,30,11,32,27.60
2018,07,30,11,33,27.70
2018,07,30,11,34,27.70
2018,07,30,11,35,27.80
2018,07,30,11,36,27.80
2018,07,30,11,37,27.80
2018,07,30,11,38,27.90
2018,07,30,11,39,28.00
2018,07,30,11,40,28.00
2018,07,30,11,41,28.10
2018,07,30,11,42,28.10
2018,07,30,11,43,28.10
2018,07,30,11,44,28.10
2018,07,30,11,45,28.10
2018,07,30,11,46,28.20
2018,07,30,11,47,28.30
2018,07,30,11,48,28.40
2018,07,30,11,49,28.40
2018,07,30,11,50,28.50
2018,07,30,11,51,28.60
2018,07,30,11,52,28.80
2018,07,30,11,53,28.90
2018,07,30,11,54,28.90
2018,07,30,11,55,28.90
2018,07,30,11,56,28.80
2018,07,30,11,57,28.80
2018,07,30,11,58,28.80
2018,07,30,11,59,28.80
2018,07,30,12,00,29.00
2018,07,30,12,01,29.10
2018,07,30,12,02,29.10
2018,07,30,12,03,29.10
2018,07,30,12,04,29.10
2018,07,30,12,05,29.10
2018,07,30,12,06,29.10
2018,07,30,12,07,29.10
2018,07,30,12,08,29.20
2018,07,30,12,09,29.20
2018,07,30,12,10,29.20
2018,07,30,12,11,29.20
2018,07,30,12,12,29.20
2018,07,30,12,13,29.30
2018,07,30,12,14,29.30
2018,07,30,12,15,29.30
2018,07,30,12,16,29.40
2018,07,30,12,17,29.40
2018,07,30,12,18,29.40
2018,07,30,12,19,29.40
2018,07,30,12,20,29.30
2018,07,30,12,21,29.30
2018,07,30,12,22,29.30
2018,07,30,12,23,29.20
2018,07,30,12,24,29.30
2018,07,30,12,25,29.20
2018,07,30,12,26,29.20
2018,07,30,12,27,29.20
2018,07,30,12,28,29.30
2018,07,30,12,29,29.30
2018,07,30,12,30,29.30
2018,07,30,12,31,29.30
2018,07,30,12,32,29.30
2018,07,30,12,33,29.30
2018,07,30,12,34,29.30
2018,07,30,12,35,29.30
2018,07,30,12,36,29.30
2018,07,30,12,37,29.30
2018,07,30,12,38,29.40
2018,07,30,12,39,29.60
2018,07,30,12,40,29.80
2018,07,30,12,41,29.90
2018,07,30,12,42,30.10
2018,07,30,12,43,30.20
2018,07,30,12,44,30.20
2018,07,30,12,45,30.20
2018,07,30,12,46,30.20
2018,07,30,12,47,30.20
2018,07,30,12,48,30.10
2018,07,30,12,49,30.10
2018,07,30,12,50,30.10
2018,07,30,12,51,30.10
2018,07,30,12,52,30.00
2018,07,30,12,53,30.00
2018,07,30,12,54,29.90
2018,07,30,12,55,29.90
2018,07,30,12,56,29.90
2018,07,30,12,57,29.90
2018,07,30,12,58,29.90
2018,07,30,12,59,29.80
2018,07,30,13,00,29.80
2018,07,30,13,01,29.70
2018,07,30,13,02,29.70
2018,07,30,13,03,29.70
2018,07,30,13,04,29.70
2018,07,30,13,05,29.70
2018,07,30,13,06,29.70
2018,07,30,13,07,29.70
2018,07,30,13,08,29.70
2018,07,30,13,09,29.80
2018,07,30,13,10,29.90
2018,07,30,13,11,30.00
2018,07,30,13,12,30.10
2018,07,30,13,13,30.30
2018,07,30,13,14,30.30
2018,07,30,13,15,30.40
2018,07,30,13,16,30.30
2018,07,30,13,17,30.30
2018,07,30,13,18,30.30
2018,07,30,13,19,30.20
2018,07,30,13,20,30.20
2018,07,30,13,21,30.20
2018,07,30,13,22,30.30
2018,07,30,13,23,30.30
2018,07,30,13,24,30.30
2018,07,30,13,25,30.30
2018,07,30,13,26,30.20
2018,07,30,13,27,30.20
2018,07,30,13,28,30.10
2018,07,30,13,29,30.10
2018,07,30,13,30,30.20
2018,07,30,13,31,30.30
2018,07,30,13,32,30.30
2018,07,30,13,33,30.40
2018,07,30,13,34,30.40
2018,07,30,13,35,30.40
2018,07,30,13,36,30.50
2018,07,30,13,37,30.60
2018,07,30,13,38,30.70
2018,07,30,13,39,30.70
2018,07,30,13,40,30.60
2018,07,30,13,41,30.40
2018,07,30,13,42,30.30
2018,07,30,13,43,30.20
2018,07,30,13,44,30.20
2018,07,30,13,45,30.20
2018,07,30,13,46,30.20
2018,07,30,13,47,30.20
2018,07,30,13,48,30.10
2018,07,30,13,49,30.00
2018,07,30,13,50,30.00
2018,07,30,13,51,29.90
2018,07,30,13,52,29.80
2018,07,30,13,53,29.70
2018,07,30,13,54,29.60
2018,07,30,13,55,29.60
2018,07,30,13,56,29.50
2018,07,30,13,57,29.40
2018,07,30,13,58,29.40
2018,07,30,13,59,29.30
2018,07,30,14,00,29.30
2018,07,30,14,01,29.30
2018,07,30,14,02,29.30
2018,07,30,14,03,29.20
2018,07,30,14,04,29.20
2018,07,30,14,05,29.20
2018,07,30,14,06,29.30
2018,07,30,14,07,29.30
2018,07,30,14,08,29.30
2018,07,30,14,09,29.30
2018,07,30,14,10,29.30
2018,07,30,14,11,29.30
2018,07,30,14,12,29.30
2018,07,30,14,13,29.20
2018,07,30,14,14,29.20
2018,07,30,14,15,29.20
2018,07,30,14,16,29.20
2018,07,30,14,17,29.20
2018,07,30,14,18,29.20
2018,07,30,14,19,29.30
2018,07,30,14,20,29.40
2018,07,30,14,21,29.50
2018,07,30,14,22,29.60
2018,07,30,14,23,29.60
2018,07,30,14,24,29.60
2018,07,30,14,25,29.70
2018,07,30,14,26,29.80
2018,07,30,14,27,29.80
2018,07,30,14,28,29.80
2018,07,30,14,29,29.70
2018,07,30,14,30,29.70
2018,07,30,14,31,29.60
2018,07,30,14,32,29.50
2018,07,30,14,33,29.40
2018,07,30,14,34,29.50
2018,07,30,14,35,29.60
2018,07,30,14,36,29.70
2018,07,30,14,37,29.80
2018,07,30,14,38,29.90
2018,07,30,14,39,29.90
2018,07,30,14,40,29.90
2018,07,30,14,41,29.90
2018,07,30,14,42,29.90
2018,07,30,14,43,29.90
2018,07,30,14,44,30.00
2018,07,30,14,45,30.00
2018,07,30,14,46,30.10
2018,07,30,14,47,30.10
2018,07,30,14,48,30.10
2018,07,30,14,49,30.20
2018,07,30,14,50,30.20
2018,07,30,14,51,30.30
2018,07,30,14,52,30.40
2018,07,30,14,53,30.50
2018,07,30,14,54,30.60
2018,07,30,14,55,30.60
2018,07,30,14,56,30.70
2018,07,30,14,57,30.80
2018,07,30,14,58,30.90
2018,07,30,14,59,31.00
2018,07,30,15,00,31.00
2018,07,30,15,01,31.10
2018,07,30,15,02,31.10
2018,07,30,15,03,31.10
2018,07,30,15,04,31.20
2018,07,30,15,05,31.20
2018,07,30,15,06,31.30
2018,07,30,15,07,31.30
2018,07,30,15,08,31.40
2018,07,30,15,09,31.40
2018,07,30,15,10,31.40
2018,07,30,15,11,31.50
2018,07,30,15,12,31.50
2018,07,30,15,13,31.60
2018,07,30,15,14,31.60
2018,07,30,15,15,31.60
2018,07,30,15,16,31.70
2018,07,30,15,17,31.80
2018,07,30,15,18,31.90
2018,07,30,15,19,31.90
2018,07,30,15,20,31.90
2018,07,30,15,21,32.00
2018,07,30,15,22,32.00
2018,07,30,15,23,32.00
2018,07,30,15,24,32.10
2018,07,30,15,25,32.10
2018,07,30,15,26,32.10
2018,07,30,15,27,32.20
2018,07,30,15,28,32.20
2018,07,30,15,29,32.20
2018,07,30,15,30,32.30
2018,07,30,15,31,32.40
2018,07,30,15,32,32.40
2018,07,30,15,33,32.40
2018,07,30,15,34,32.50
2018,07,30,15,35,32.50
2018,07,30,15,36,32.50
2018,07,30,15,37,32.50
2018,07,30,15,38,32.50
2018,07,30,15,39,32.40
2018,07,30,15,40,32.30
2018,07,30,15,41,32.10
2018,07,30,15,42,31.90
2018,07,30,15,43,31.80
2018,07,30,15,44,31.60
2018,07,30,15,45,31.50
2018,07,30,15,46,31.40
2018,07,30,15,47,31.30
2018,07,30,15,48,31.30
2018,07,30,15,49,31.30
2018,07,30,15,50,31.40
2018,07,30,15,51,31.50
2018,07,30,15,52,31.50
2018,07,30,15,53,31.50
2018,07,30,15,54,31.40
2018,07,30,15,55,31.40
2018,07,30,15,56,31.50
2018,07,30,15,57,31.60
2018,07,30,15,58,31.60
2018,07,30,15,59,31.70
2018,07,30,16,00,31.60
2018,07,30,16,01,31.40
2018,07,30,16,02,31.30
2018,07,30,16,03,31.20
2018,07,30,16,04,31.20
2018,07,30,16,05,31.20
2018,07,30,16,06,31.20
2018,07,30,16,07,31.10
2018,07,30,16,08,31.10
2018,07,30,16,09,31.10
2018,07,30,16,10,31.10
2018,07,30,16,11,31.10
2018,07,30,16,12,31.10
2018,07,30,16,13,31.10
2018,07,30,16,14,31.10
2018,07,30,16,15,31.00
2018,07,30,16,16,31.00
2018,07,30,16,17,31.00
2018,07,30,16,18,31.10
2018,07,30,16,19,31.10
2018,07,30,16,20,31.20
2018,07,30,16,21,31.20
2018,07,30,16,22,31.20
2018,07,30,16,23,31.20
2018,07,30,16,24,31.20
2018,07,30,16,25,31.30
2018,07,30,16,26,31.30
2018,07,30,16,27,31.30
2018,07,30,16,28,31.30
2018,07,30,16,29,31.30
2018,07,30,16,30,31.30
2018,07,30,16,31,31.30
2018,07,30,16,32,31.40
2018,07,30,16,33,31.50
2018,07,30,16,34,31.60
2018,07,30,16,35,31.60
2018,07,30,16,36,31.60
2018,07,30,16,37,31.70
2018,07,30,16,38,31.70
2018,07,30,16,39,31.80
2018,07,30,16,40,31.80
2018,07,30,16,41,31.80
2018,07,30,16,42,31.80
2018,07,30,16,43,31.90
2018,07,30,16,44,31.90
2018,07,30,16,45,31.90
2018,07,30,16,46,31.90
2018,07,30,16,47,31.90
2018,07,30,16,48,31.90
2018,07,30,16,49,32.00
2018,07,30,16,50,32.00
2018,07,30,16,51,32.10
2018,07,30,16,52,32.20
2018,07,30,16,53,32.20
2018,07,30,16,54,32.30
2018,07,30,16,55,32.30
2018,07,30,16,56,32.40
2018,07,30,16,57,32.40
2018,07,30,16,58,32.40
2018,07,30,16,59,32.40
2018,07,30,17,00,32.40
2018,07,30,17,01,32.50
2018,07,30,17,02,32.50
2018,07,30,17,03,32.40
2018,07,30,17,04,32.40
2018,07,30,17,05,32.40
2018,07,30,17,06,32.40
2018,07,30,17,07,32.40
2018,07,30,17,08,32.30
2018,07,30,17,09,32.30
2018,07,30,17,10,32.20
2018,07,30,17,11,32.20
2018,07,30,17,12,32.10
2018,07,30,17,13,32.10
2018,07,30,17,14,32.00
2018,07,30,17,15,31.90
2018,07,30,17,16,31.80
2018,07,30,17,17,31.70
2018,07,30,17,18,31.70
2018,07,30,17,19,31.60